Weather History for KSUX - April, 2012

Change the Weather History Date:

Monday, April 30, 2012

  Actual Average Record
Temperature  
Mean Temperature 61 °F 55 °F  
Max Temperature 76 °F 68 °F 93 °F (1965)
Min Temperature 45 °F 43 °F 22 °F (1903)
Degree Days  
Heating Degree Days 4 10  
Month to date heating degree days 328 475  
Since 1 July heating degree days 5494 6652  
Cooling Degree Days 0 1  
Month to date cooling degree days 22 11  
Year to date cooling degree days 50 11  
Growing Degree Days 10 (Base 50)    
Moisture  
Dew Point 48 °F    
Average Humidity 74    
Maximum Humidity 100    
Minimum Humidity 30    
Precipitation  
Precipitation 0.00 in 0.11 in 1.23 in (2003)
Month to date precipitation 4.82 2.95  
Year to date precipitation 8.29 6.24  
Snow  
Snow 0.00 in 0.00 in 0.50 in (1903)
Month to date snowfall 0.0 1.8  
Since 1 July snowfall 18.3 34.8  
Snow Depth 0.00 in    
Sea Level Pressure  
Sea Level Pressure 29.94 in    
Wind  
Wind Speed 8 mph (SSW)    
Max Wind Speed 20 mph    
Max Gust Speed 24 mph    
Visibility 7 miles    
Events      
T = Trace of Precipitation, MM = Missing Value Source: NWS Daily Summary

Daily Weather History Graph

Daily Weather History Graph

Search for Another Location

Airport or City:

Trip Planner

Search our weather history database for the weather conditions in past years. The results will help you decide how hot, cold, wet, or windy it might be!

Date:

Astronomy

Apr. 30, 2012 Rise Set
Actual Time 6:21 AM CDT 8:24 PM CDT
Civil Twilight 5:50 AM CDT 8:55 PM CDT
Nautical Twilight 5:13 AM CDT 9:33 PM CDT
Astronomical Twilight 4:32 AM CDT 10:14 PM CDT
Moon 2:15 PM CDT (4/30) 2:54 AM CDT (4/30)
Length of Visible Light 15h 04m
Length of Day
14h 03m
Waxing Gibbous, 64% of the Moon is Illuminated
Apr 30
Waxing Gibbous
May 5
Full
May 12
Last Quarter
May 20
New
May 28
First Quarter

Hourly Weather History & Observations

Time (CDT) Temp. Windchill Dew Point Humidity Pressure Visibility Wind Dir Wind Speed Gust Speed Precip Events Conditions
12:52 AM 48.0 °F - 45.0 °F 89% 30.01 in 8.0 mi Calm Calm - N/A   Overcast
1:28 AM 46.4 °F 44.3 °F 46.4 °F 100% 29.98 in 5.0 mi NW 4.6 mph - N/A   Overcast
1:52 AM 48.0 °F - 46.0 °F 93% 30.00 in 6.0 mi Calm Calm - N/A   Overcast
2:52 AM 46.9 °F - 46.0 °F 97% 30.00 in 5.0 mi SE 4.6 mph - N/A   Overcast
3:44 AM 48.2 °F - 46.4 °F 93% 30.01 in 5.0 mi Calm Calm - N/A   Overcast
3:52 AM 48.0 °F - 46.0 °F 93% 30.03 in 5.0 mi South 3.5 mph - N/A   Overcast
4:03 AM 48.2 °F - 46.4 °F 93% 30.01 in 6.0 mi Calm Calm - N/A   Overcast
4:35 AM 48.2 °F - 46.4 °F 93% 30.02 in 5.0 mi SW 3.5 mph - N/A   Overcast
4:52 AM 48.0 °F - 46.0 °F 93% 30.03 in 5.0 mi Calm Calm - N/A   Overcast
5:52 AM 48.0 °F - 46.0 °F 93% 30.02 in 5.0 mi Calm Calm - N/A   Overcast
6:39 AM 46.4 °F - 44.6 °F 93% 29.99 in 2.5 mi Calm Calm - N/A   Scattered Clouds
6:47 AM 46.4 °F - 44.6 °F 93% 29.99 in 1.2 mi Calm Calm - N/A   Partly Cloudy
6:52 AM 45.0 °F - 45.0 °F 100% 30.00 in 4.0 mi Calm Calm - N/A   Clear
6:54 AM 46.4 °F - 44.6 °F 93% 29.98 in 4.0 mi Calm Calm - N/A   Clear
7:52 AM 48.9 °F - 46.9 °F 93% 30.01 in 4.0 mi West 5.8 mph - N/A   Clear
8:52 AM 53.1 °F - 48.0 °F 83% 30.00 in 8.0 mi WNW 8.1 mph - N/A   Clear
9:15 AM 55.4 °F - 48.2 °F 77% 29.98 in 8.0 mi West 8.1 mph - N/A   Mostly Cloudy
9:52 AM 57.0 °F - 50.0 °F 77% 29.99 in 9.0 mi West 6.9 mph - N/A   Partly Cloudy
10:52 AM 60.1 °F - 50.0 °F 69% 29.98 in 10.0 mi West 4.6 mph - N/A   Partly Cloudy
11:52 AM 64.0 °F - 51.1 °F 63% 29.97 in 10.0 mi SSW 6.9 mph - N/A   Clear
12:52 PM 69.1 °F - 51.1 °F 53% 29.94 in 10.0 mi Variable 4.6 mph - N/A   Partly Cloudy
1:52 PM 71.1 °F - 48.9 °F 45% 29.91 in 10.0 mi SSW 6.9 mph 16.1 mph N/A   Scattered Clouds
2:52 PM 72.0 °F - 46.9 °F 41% 29.89 in 10.0 mi SW 9.2 mph 18.4 mph N/A   Scattered Clouds
3:52 PM 73.9 °F - 48.9 °F 41% 29.86 in 10.0 mi SW 6.9 mph - N/A   Partly Cloudy
4:52 PM 75.0 °F - 48.0 °F 38% 29.84 in 10.0 mi SSW 15.0 mph - N/A   Clear
5:52 PM 75.0 °F - 46.9 °F 37% 29.82 in 10.0 mi South 15.0 mph 23.0 mph N/A   Clear
6:52 PM 73.0 °F - 48.0 °F 41% 29.81 in 10.0 mi South 16.1 mph - N/A   Clear
7:52 PM 69.1 °F - 50.0 °F 51% 29.81 in 10.0 mi South 18.4 mph 23.0 mph N/A   Clear
8:52 PM 64.9 °F - 51.1 °F 61% 29.81 in 10.0 mi SSE 11.5 mph - N/A   Clear
9:52 PM 62.1 °F - 50.0 °F 65% 29.82 in 10.0 mi SE 11.5 mph - N/A   Clear
10:52 PM 60.1 °F - 52.0 °F 75% 29.82 in 10.0 mi SE 12.7 mph - N/A   Clear
11:52 PM 59.0 °F - 52.0 °F 78% 29.78 in 9.0 mi SE 12.7 mph - N/A   Clear